FALCON HEAVY R/B, 56373

Orbit data source: Space-Track

FALCON HEAVY R/B, 56373 is space debris in GEO originally from a launch on Mon, 01 May 2023 UTC launched from the Air Force Eastern Test Range (AFETR). Debris objects in space refer to the collection of defunct objects orbiting the Earth. Examples of debris include non-operational satellites, rocket bodies, and fragments generated from explosions, collisions, or faulty payload assembly.

Not visible in the next 10 days
Identifier
56373, 2023-060D
Orbit
GEO
Country
Flag of USUS
Related business
Manufacturer
SpaceX
Mission
Spacecraft
Bus & Motor
F9ST2, Unknown motor
Mass
~4,000 kg wet, ~4,000 kg dry
Launch date (UTC)
2023-05-01 (3 years ago)
Launch vehicle
Unknown
Launch site
Air Force Eastern Test Range (AFETR)
Object type
Payload
Rocket body
Debris
Shape & HBR
Cyl, Unknown HBR
Radar Cross Section
49.816 m², Large (>1 m²)

Expand to show TLE details & history
Last TLE update: 13 hours ago

TLE from 13 hours ago
0 FALCON HEAVY R/B
1 56373U 23060D   25303.12749944 -.00000135  00000-0  00000-0 0  9998
2 56373   2.2751  81.1301 0015380 168.9070 266.1837  1.04744463  9561
Epoch: 2025-10-30T03:03Z
TLE epoch observation values (Epoch: 2025-10-30T03:03:35.951Z)
Latitude
2.1817°
Longitude
71.40889°
Altitude
34,580.925 km
Speed
3.119 km/s
True Right ascension
10h 23m 59s
True Declination
2° 10' 46"
Sunlit
Object was in daylight at epoch
Visualization orbit readout
Latitude
Unknown
Longitude
Unknown
Altitude
Unknown
Speed
Unknown
Apparent Right ascension
Unknown
Apparent Declination
Unknown
Sunlit
N/A
Visualization observer readout
Local Sidereal Time
11:52:27
Azimuth
Unknown
Elevation
Unknown
Doppler factor
Unknown
Orbital elements
Apogee altitude
34,641.662 km
Perigee altitude
34,515.679 km
Semi-major axis
40,956.808 km
Eccentricity
0.00154
Inclination
2.2751°
RAAN
81.1301°
Arg. of periapsis
168.907°
True anomaly
266.00787°
Mean anomaly
266.1837°
Eccentric anomaly
266.09578°
Mean motion
0.26185 °/min
Orbital period
1,374.83 mins
BSTAR
0
Loading maneuver chart data...
Computing Atmospheric mass density...
Loading historical data...
Loading historical data...
Loading historical data...
Loading historical data...
Loading historical data...
Loading historical data...
Loading historical data...
Other satellites on launch #60 in the year 2023 (2023-05-01 UTC)

Documentation

Showing up to 5 results
|